Location: Writing-on-Stone Provincial Park
(49.0825°N, 111.6163°W)
Time: 00:22:17
(UTC-06:00)

Amateur Radio Satellites - All Passes

Search period start: 21 October 2014 23:52
Search period end: 22 October 2014 23:52
Location: Writing-on-Stone Provincial Park, 49.0825°N, 111.6163°W

Satellite Date Start Highest point End Downlink Frequencies (MHz)
Time Altitude Azimuth
FUNcube-1 22 Oct 00:14:52 00:17:41 16° 271° (W) 00:20:29 145.950 - 145.970 MHz USB
SO-50 22 Oct 00:16:34 00:20:00 20° 248° (WSW) 00:23:28 436.795 FM
UOSAT-12 22 Oct 00:16:53 00:21:39 72° 48° (NE) 00:26:19 437.025 FM, 437.400 FM
MaSat-1 22 Oct 00:43:38 00:46:58 24° 111° (ESE) 00:50:05 437.345 MHz
Oscar 16 22 Oct 01:37:15 01:39:21 12° 86° (E) 01:41:25 437.025 USB, Beacon 2401.1428
RS-15 22 Oct 01:48:19 01:59:00 55° 324° (NW) 02:09:49 29.354 - 29.394 USB, Beacon 29.352 USB
UOSAT-12 22 Oct 01:57:58 02:01:18 19° 248° (WSW) 02:04:36 437.025 FM, 437.400 FM
AO-Echo 22 Oct 01:58:43 02:00:03 11° 84° (E) 02:01:22 ?
MaSat-1 22 Oct 02:18:43 02:22:35 40° 306° (NW) 02:26:05 437.345 MHz
Oscar 19 22 Oct 02:29:23 02:34:03 34° 96° (E) 02:38:40 437.125 CW, 437.150 USB
JAS-1B 22 Oct 02:36:41 02:42:36 38° 98° (E) 02:49:27 435.800 - 435.900 CW/SSB
AO-27 22 Oct 02:39:44 02:43:28 20° 90° (E) 02:47:11 436.795 MHz FM
Oscar 10/S400 22 Oct 02:42:31 03:18:16 13° 245° (WSW) 04:15:04 145.825 - 145.975 CW/USB, Beacon 145.810 USB
Oscar 16 22 Oct 03:14:21 03:19:32 83° 105° (ESE) 03:24:39 437.025 USB, Beacon 2401.1428
Uribyol 2 22 Oct 03:28:15 03:33:21 50° 100° (E) 03:38:24 436.500 FM
ITAMSAT 1 22 Oct 03:33:27 03:38:35 53° 100° (E) 03:43:40 435.822 SSB
AO-Echo 22 Oct 03:34:27 03:39:44 70° 103° (ESE) 03:45:03 ?
Gurwin Techsat 1B 22 Oct 03:35:06 03:39:50 32° 95° (E) 03:44:32 435.225 FM
TMSAT-1 22 Oct 03:48:24 03:53:07 31° 94° (E) 03:57:47 436.925 FM
RS-15 22 Oct 04:04:26 04:14:15 36° 357° (N) 04:24:16 29.354 - 29.394 USB, Beacon 29.352 USB
Oscar 19 22 Oct 04:08:44 04:13:26 38° 295° (WNW) 04:18:07 437.125 CW, 437.150 USB
AO-27 22 Oct 04:18:16 04:23:30 68° 289° (WNW) 04:28:40 436.795 MHz FM
OPAL 22 Oct 04:19:27 04:23:39 26° 58° (ENE) 04:27:48 ?
AO-7 22 Oct 04:26:21 04:32:27 22° 89° (E) 04:38:32 29.400 - 29.500 MHz
JAS-1B 22 Oct 04:27:27 04:33:22 47° 294° (WNW) 04:40:16 435.800 - 435.900 CW/SSB
Oscar 16 22 Oct 04:54:54 04:58:16 18° 304° (NW) 05:01:36 437.025 USB, Beacon 2401.1428
Sapphire 22 Oct 04:56:16 05:01:01 32° 112° (ESE) 05:05:48 437.095 MHz 1200 baud AX-25 AFSK
Uribyol 2 22 Oct 05:08:12 05:12:35 28° 299° (WNW) 05:16:56 436.500 FM
ITAMSAT 1 22 Oct 05:13:28 05:17:48 27° 299° (WNW) 05:22:07 435.822 SSB
AO-Echo 22 Oct 05:14:05 05:18:01 22° 301° (WNW) 05:21:58 ?
Gurwin Techsat 1B 22 Oct 05:14:55 05:19:56 43° 294° (WNW) 05:24:55 435.225 FM
Uosat F 22 Oct 05:17:03 05:21:30 30° 95° (E) 05:25:54 435.120 FM
PCSat 22 Oct 05:18:34 05:23:47 51° 117° (ESE) 05:29:02 145.825 MHz
TMSAT-1 22 Oct 05:28:09 05:33:10 44° 293° (WNW) 05:38:10 436.925 FM
JAS-2 22 Oct 05:54:49 06:01:19 29° 90° (E) 06:07:56 435.800 - 435.900 CW/SSB, 435.910 FM
OPAL 22 Oct 05:57:10 06:02:14 55° 257° (WSW) 06:07:16 ?
STRAND 1 22 Oct 05:59:14 06:03:08 22° 59° (ENE) 06:07:03 ?
AO-27 22 Oct 05:59:44 06:02:05 13° 309° (NW) 06:04:26 436.795 MHz FM
AO-7 22 Oct 06:18:01 06:26:24 87° 110° (ESE) 06:34:45 29.400 - 29.500 MHz
RS-15 22 Oct 06:19:11 06:29:49 49° 30° (NNE) 06:40:46 29.354 - 29.394 USB, Beacon 29.352 USB
JAS-1B 22 Oct 06:21:51 06:22:45 10° 315° (NW) 06:23:39 435.800 - 435.900 CW/SSB
Sapphire 22 Oct 06:39:00 06:44:16 51° 312° (NW) 06:49:35 437.095 MHz 1200 baud AX-25 AFSK
Hamsat 22 Oct 06:50:32 06:54:24 35° 96° (E) 06:58:15 145.90 MHz
Uosat F 22 Oct 06:55:39 07:00:24 42° 294° (WNW) 07:05:08 435.120 FM
PCSat 22 Oct 07:02:26 07:07:24 36° 318° (NW) 07:12:25 145.825 MHz
STRAND 1 22 Oct 07:36:48 07:41:54 64° 258° (WSW) 07:47:02 ?
JAS-2 22 Oct 07:39:18 07:46:53 74° 289° (WNW) 07:54:44 435.800 - 435.900 CW/SSB, 435.910 FM
Saudisat 1A 22 Oct 07:57:32 07:58:00 10° 108° (ESE) 07:58:28 436.775 MHz
AO-7 22 Oct 08:11:35 08:18:20 29° 312° (NW) 08:25:06 29.400 - 29.500 MHz
Sapphire 22 Oct 08:25:30 08:28:59 17° 336° (NNW) 08:32:30 437.095 MHz 1200 baud AX-25 AFSK
Hamsat 22 Oct 08:26:44 08:30:15 26° 295° (WNW) 08:33:45 145.90 MHz
RS-15 22 Oct 08:31:59 08:43:02 75° 238° (WSW) 08:54:33 29.354 - 29.394 USB, Beacon 29.352 USB
SO-67 22 Oct 08:32:07 08:35:34 63° 101° (E) 08:38:59 435.3500 MHz FM
PCSat 22 Oct 08:49:38 08:52:29 14° 343° (NNW) 08:55:20 145.825 MHz
MaSat-1 22 Oct 08:51:43 08:52:24 11° 39° (NE) 08:53:05 437.345 MHz
JAS-2 22 Oct 09:25:31 09:30:50 22° 309° (NW) 09:36:19 435.800 - 435.900 CW/SSB, 435.910 FM
Saudisat 1A 22 Oct 09:32:23 09:36:45 72° 126° (SE) 09:41:10 436.775 MHz
UKube-1 22 Oct 09:49:47 09:50:22 10° 86° (E) 09:50:58 145.840 MHz, 145.915 MHz
SO-67 22 Oct 10:06:48 10:08:05 12° 299° (WNW) 10:09:22 435.3500 MHz FM
HO-68 22 Oct 10:07:15 10:14:10 47° 99° (E) 10:21:01 435.675 MHz FM
AO-7 22 Oct 10:07:30 10:08:24 10° 337° (NNW) 10:09:18 29.400 - 29.500 MHz
Sapphire 22 Oct 10:13:00 10:14:48 12° 2° (N) 10:16:35 437.095 MHz 1200 baud AX-25 AFSK
MaSat-1 22 Oct 10:25:49 10:28:36 59° 243° (WSW) 10:31:05 437.345 MHz
Oscar 11 22 Oct 10:31:21 10:34:58 25° 94° (E) 10:38:33 145.825 FM, Beacon 2401.500 USB
PCSat 22 Oct 10:36:14 10:38:23 12° 9° (N) 10:40:32 145.825 MHz
RS-15 22 Oct 10:45:55 10:53:30 22° 261° (W) 11:01:18 29.354 - 29.394 USB, Beacon 29.352 USB
ZACube-1 22 Oct 11:12:38 11:16:27 29° 95° (E) 11:20:09 437.345 MHz
Saudisat 1A 22 Oct 11:13:07 11:16:46 25° 327° (NNW) 11:20:25 436.775 MHz
UKube-1 22 Oct 11:22:51 11:27:16 85° 105° (ESE) 11:31:38 145.840 MHz, 145.915 MHz
HO-68 22 Oct 11:55:08 12:01:51 44° 299° (WNW) 12:08:33 435.675 MHz FM
Sapphire 22 Oct 11:56:33 12:00:29 20° 29° (NNE) 12:04:24 437.095 MHz 1200 baud AX-25 AFSK
FUNcube-1 22 Oct 11:57:46 12:02:08 83° 104° (ESE) 12:06:20 145.950 - 145.970 MHz USB
KITSAT 1 22 Oct 12:05:20 12:10:26 19° 101° (E) 12:15:32 435.175 FM
Oscar 11 22 Oct 12:07:16 12:11:15 37° 292° (WNW) 12:15:13 145.825 FM, Beacon 2401.500 USB
Oscar 19 22 Oct 12:14:18 12:16:49 14° 53° (NE) 12:19:19 437.125 CW, 437.150 USB
PCSat 22 Oct 12:19:19 12:23:49 25° 35° (NE) 12:28:17 145.825 MHz
ZACube-1 22 Oct 12:49:00 12:52:52 32° 294° (WNW) 12:56:37 437.345 MHz
Oscar 10/S400 22 Oct 12:55:03 13:05:30 15° 146° (SE) 13:15:24 145.825 - 145.975 CW/USB, Beacon 145.810 USB
Saudisat 1A 22 Oct 12:56:19 12:57:52 12° 351° (N) 12:59:24 436.775 MHz
Oscar 16 22 Oct 12:57:12 13:01:36 29° 62° (ENE) 13:06:00 437.025 USB, Beacon 2401.1428
UKube-1 22 Oct 13:00:34 13:02:51 14° 303° (WNW) 13:05:07 145.840 MHz, 145.915 MHz
Uribyol 2 22 Oct 13:12:49 13:16:32 20° 57° (ENE) 13:20:16 436.500 FM
AO-Echo 22 Oct 13:14:29 13:18:11 22° 59° (ENE) 13:21:59 ?
ITAMSAT 1 22 Oct 13:18:03 13:21:51 21° 57° (ENE) 13:25:40 435.822 SSB
Gurwin Techsat 1B 22 Oct 13:23:44 13:26:21 14° 52° (NE) 13:28:58 435.225 FM
JAS-1B 22 Oct 13:27:47 13:33:19 43° 65° (ENE) 13:38:39 435.800 - 435.900 CW/SSB
FUNcube-1 22 Oct 13:35:43 13:37:53 14° 303° (WNW) 13:40:00 145.950 - 145.970 MHz USB
TMSAT-1 22 Oct 13:36:50 13:39:21 14° 52° (NE) 13:41:52 436.925 FM
Sapphire 22 Oct 13:39:31 13:44:58 66° 51° (NE) 13:50:22 437.095 MHz 1200 baud AX-25 AFSK
AO-7 22 Oct 13:42:14 13:46:24 15° 33° (NNE) 13:50:35 29.400 - 29.500 MHz
HO-68 22 Oct 13:45:04 13:47:48 13° 322° (NW) 13:50:33 435.675 MHz FM
Oscar 19 22 Oct 13:50:10 13:55:19 74° 72° (ENE) 14:00:28 437.125 CW, 437.150 USB
KITSAT 1 22 Oct 13:56:28 14:04:31 75° 122° (ESE) 14:12:36 435.175 FM
AO-27 22 Oct 14:01:30 14:06:25 44° 66° (ENE) 14:11:22 436.795 MHz FM
PCSat 22 Oct 14:02:25 14:07:54 84° 237° (WSW) 14:13:19 145.825 MHz
ISS 22 Oct 14:22:12 14:24:42 20° 140° (SE) 14:27:12 145.800 FM
SO-50 22 Oct 14:33:55 14:38:19 55° 123° (ESE) 14:42:53 436.795 FM
Oscar 16 22 Oct 14:35:47 14:40:45 47° 261° (W) 14:45:45 437.025 USB, Beacon 2401.1428
Saudisat 1A 22 Oct 14:37:11 14:39:20 13° 16° (NNE) 14:41:30 436.775 MHz
Uribyol 2 22 Oct 14:50:15 14:55:28 75° 256° (WSW) 15:00:44 436.500 FM
AO-Echo 22 Oct 14:51:41 14:56:31 63° 259° (WSW) 15:01:33 ?
ITAMSAT 1 22 Oct 14:55:38 15:00:50 71° 257° (WSW) 15:06:05 435.822 SSB
Uosat F 22 Oct 14:59:29 15:01:15 12° 51° (NE) 15:03:01 435.120 FM
Gurwin Techsat 1B 22 Oct 15:00:08 15:05:25 72° 72° (ENE) 15:10:44 435.225 FM
TMSAT-1 22 Oct 15:13:05 15:18:21 70° 72° (ENE) 15:23:40 436.925 FM
JAS-1B 22 Oct 15:19:00 15:24:15 31° 265° (W) 15:29:16 435.800 - 435.900 CW/SSB
Sapphire 22 Oct 15:23:40 15:27:57 24° 251° (WSW) 15:32:12 437.095 MHz 1200 baud AX-25 AFSK
AO-7 22 Oct 15:29:28 15:37:10 45° 57° (ENE) 15:44:54 29.400 - 29.500 MHz
Oscar 19 22 Oct 15:31:51 15:35:13 17° 271° (W) 15:38:37 437.125 CW, 437.150 USB
AO-27 22 Oct 15:41:32 15:46:05 30° 265° (W) 15:50:41 436.795 MHz FM
PCSat 22 Oct 15:47:32 15:50:29 15° 256° (WSW) 15:53:25 145.825 MHz
KITSAT 1 22 Oct 15:53:07 16:00:37 40° 326° (NW) 16:08:09 435.175 FM
ISS 22 Oct 15:57:41 16:01:02 84° 158° (SSE) 16:04:24 145.800 FM
UOSAT-12 22 Oct 16:11:27 16:15:57 50° 122° (ESE) 16:20:31 437.025 FM, 437.400 FM
JAS-2 22 Oct 16:13:25 16:17:37 19° 49° (NE) 16:22:09 435.800 - 435.900 CW/SSB, 435.910 FM
SO-50 22 Oct 16:15:05 16:19:09 31° 325° (NW) 16:23:21 436.795 FM
Saudisat 1A 22 Oct 16:16:06 16:20:11 35° 39° (NE) 16:24:15 436.775 MHz
Uosat F 22 Oct 16:34:07 16:39:05 63° 71° (ENE) 16:44:05 435.120 FM
Uribyol 2 22 Oct 16:34:16 16:35:52 11° 275° (W) 16:37:28 436.500 FM
ITAMSAT 1 22 Oct 16:40:10 16:41:17 11° 276° (W) 16:42:25 435.822 SSB
Gurwin Techsat 1B 22 Oct 16:42:16 16:45:57 19° 271° (W) 16:49:39 435.225 FM
TMSAT-1 22 Oct 16:55:05 16:58:49 19° 271° (W) 17:02:34 436.925 FM
AO-7 22 Oct 17:21:52 17:29:53 53° 258° (WSW) 17:37:58 29.400 - 29.500 MHz
ISS 22 Oct 17:34:37 17:37:54 52° 358° (N) 17:41:11 145.800 FM
Hamsat 22 Oct 17:47:37 17:51:36 42° 70° (ENE) 17:55:34 145.90 MHz
UOSAT-12 22 Oct 17:52:02 17:56:18 33° 323° (NW) 18:00:37 437.025 FM, 437.400 FM
KITSAT 1 22 Oct 17:52:14 17:58:31 24° 355° (N) 18:04:48 435.175 FM
JAS-2 22 Oct 17:55:36 18:01:32 80° 72° (ENE) 18:08:22 435.800 - 435.900 CW/SSB, 435.910 FM
Saudisat 1A 22 Oct 17:55:39 17:59:51 42° 239° (WSW) 18:04:00 436.775 MHz
SO-50 22 Oct 17:58:49 18:01:12 14° 348° (NNW) 18:03:36 436.795 FM
OPAL 22 Oct 18:03:19 18:07:30 26° 96° (E) 18:11:38 ?
Uosat F 22 Oct 18:14:41 18:18:19 20° 269° (W) 18:21:59 435.120 FM
HO-68 22 Oct 18:56:52 19:00:33 15° 41° (NE) 19:04:15 435.675 MHz FM
SO-67 22 Oct 19:08:32 19:11:45 38° 71° (ENE) 19:14:59 435.3500 MHz FM
ISS 22 Oct 19:11:27 19:14:48 83° 17° (NNE) 19:18:10 145.800 FM
AO-7 22 Oct 19:23:40 19:24:44 10° 280° (W) 19:25:48 29.400 - 29.500 MHz
Hamsat 22 Oct 19:24:28 19:27:44 22° 268° (W) 19:31:00 145.90 MHz
UOSAT-12 22 Oct 19:35:18 19:37:51 14° 346° (NNW) 19:40:24 437.025 FM, 437.400 FM
SO-50 22 Oct 19:41:11 19:43:44 14° 14° (NNE) 19:46:18 436.795 FM
OPAL 22 Oct 19:41:50 19:46:37 47° 295° (WNW) 19:51:20 ?
JAS-2 22 Oct 19:43:15 19:47:36 20° 275° (W) 19:52:19 435.800 - 435.900 CW/SSB, 435.910 FM
STRAND 1 22 Oct 19:43:28 19:48:05 32° 95° (E) 19:52:40 ?
KITSAT 1 22 Oct 19:49:45 19:56:46 31° 24° (NNE) 20:03:44 435.175 FM
HO-68 22 Oct 20:39:51 20:46:45 53° 64° (ENE) 20:53:41 435.675 MHz FM
SO-67 22 Oct 20:42:42 20:44:55 16° 269° (W) 20:47:08 435.3500 MHz FM
UKube-1 22 Oct 20:47:52 20:50:42 17° 59° (ENE) 20:53:33 145.840 MHz, 145.915 MHz
ISS 22 Oct 20:48:27 20:51:15 25° 217° (SW) 20:54:03 145.800 FM
UOSAT-12 22 Oct 21:17:35 21:19:58 14° 11° (N) 21:22:20 437.025 FM, 437.400 FM
SO-50 22 Oct 21:21:22 21:25:43 33° 37° (NE) 21:30:07 436.795 FM
STRAND 1 22 Oct 21:22:33 21:27:22 41° 294° (WNW) 21:32:10 ?
FUNcube-1 22 Oct 21:23:31 21:26:18 16° 59° (ENE) 21:29:03 145.950 - 145.970 MHz USB
Oscar 11 22 Oct 21:30:10 21:34:04 34° 67° (ENE) 21:37:59 145.825 FM, Beacon 2401.500 USB
KITSAT 1 22 Oct 21:45:26 21:53:33 75° 50° (NE) 22:01:37 435.175 FM
ZACube-1 22 Oct 22:12:33 22:16:52 42° 69° (ENE) 22:21:08 437.345 MHz
UKube-1 22 Oct 22:22:06 22:26:26 66° 257° (WSW) 22:30:48 145.840 MHz, 145.915 MHz
HO-68 22 Oct 22:28:09 22:34:42 38° 264° (W) 22:41:18 435.675 MHz FM
UOSAT-12 22 Oct 22:57:26 23:01:37 29° 35° (NE) 23:05:44 437.025 FM, 437.400 FM
FUNcube-1 22 Oct 22:57:33 23:02:08 77° 257° (WSW) 23:06:42 145.950 - 145.970 MHz USB
RS-15 22 Oct 23:00:21 23:10:37 48° 113° (ESE) 23:20:50 29.354 - 29.394 USB, Beacon 29.352 USB
SO-50 22 Oct 23:01:49 23:06:32 54° 237° (WSW) 23:11:17 436.795 FM
Oscar 11 22 Oct 23:06:32 23:10:17 29° 265° (W) 23:14:04 145.825 FM, Beacon 2401.500 USB
